Regional Weather Roundup
Issued by NWS Wakefield, VA

Home | Current Version | Previous Version | Graphics & Text | Print | Product List | Glossary On
Versions: 1 2 3 4 5 6 7 8 9 10 11 12 13 14 15 16 17 18 19 20 21 22 23 24 25 26 27 28 29 30 31 32 33 34 35 36 37 38 39 40 41 42 43 44 45 46 47 48 49 50
000
ASUS41 KAKQ 061915
RWRAKQ

REGIONAL WEATHER ROUNDUP
NATIONAL WEATHER SERVICE WAKEFIELD VA
300 PM EDT MON JUL 06 2015

Note: "fair" indicates few or no clouds below 12,000 feet with no
significant weather and/or obstructions to visibility. * = Denotes
station may not report precipitation (e.g., rain,snow,etc.),
thunder or fog.

VAZ042-051-052>054-056-062000-
NORTHERN VIRGINIA

CITY           SKY/WX    TMP DP  RH WIND       PRES   REMARKS
WASH NATIONAL  PTSUNNY   88  73  61 S9        30.06F HX  95
DULLES         PTSUNNY   82  70  66 SE9G16    30.05F
FORT BELVOIR   MOSUNNY   84  72  66 SE10      30.05F
QUANTICO       PTSUNNY   86  68  54 S6        30.01F
FREDERICKSBRG* PTSUNNY   87  73  64 S5        30.04F
STAFFORD*      MOSUNNY   83  72  69 SE8       30.09F
WARRENTON      MOSUNNY   86  74  68 S8        30.05F
CULPEPER*      PTSUNNY   79  71  77 W8        30.06F
MANASSAS*      CLOUDY    82  72  69 SE14      30.05F
LEESBURG*        N/A    N/A N/A N/A MISG        N/A
WINCHESTER     PTSUNNY   82  70  65 SE13G21   30.06F
FRONT ROYAL*   FAIR      82  70  65 S10G17    30.05F
LURAY*         MOCLDY    82  70  65 SW5       30.06F
$$

VAZ048-049-060>072-079>083-062000-
CENTRAL AND SOUTH CENTRAL VIRGINIA

CITY           SKY/WX    TMP DP  RH WIND       PRES   REMARKS
RICHMOND       PTSUNNY   86  70  58 S12       30.06F
CHESTERFIELD*  NOT AVBL
PETERSBURG*    PTSUNNY   87  77  72 S6        30.07F HX  98
HANOVER        PTSUNNY   85  69  58 S10       30.07F
TAPPAHANNOCK*  MOSUNNY   86  68  54 SE10      30.07F
QUINTON*       FAIR      84  71  65 S5        30.06F
CHARLOTTSVILLE MOSUNNY   80  71  74 VRB6      30.06F
GORDONSVILLE*  FAIR      82  70  65 S9G16     30.05F
ORANGE*        PTSUNNY   82  72  69 SE7       30.07F
LOUISA*        MOSUNNY   84  72  65 SW6       30.06F
BUMPASS*       MOCLDY    82  72  71 SE5       30.06F
FARMVILLE*     MOSUNNY   84  69  61 S10       30.04F
CREWE*         FAIR      85  70  61 S9        30.07F
FORT PICKETT*  FAIR      85  72  65 S13       30.07F
CHASE CITY*    MOCLDY    85  72  66 S6        30.07F
CLARKSVILLE*   CLOUDY    82  70  65 SW8       30.07S
SOUTH HILL*    MOSUNNY   85  71  62 S13G21    30.13F
LAWRENCEVILLE* NOT AVBL
EMPORIA*         N/A     84  72  65 SE9       30.09S
$$

VAZ088>098-062000-
SOUTHEAST VIRGINIA

CITY           SKY/WX    TMP DP  RH WIND       PRES   REMARKS
NORFOLK        LGT RAIN  75  69  81 CALM      30.10R
VIRGINIA BEACH TSTM      76  74  93 NW5       30.10R
NORFOLK NAVAL  PTSUNNY   76  72  87 SE7       30.11R THUNDER
WEST POINT*    MOSUNNY   88  70  54 SW8       30.09S
SALUDA*        FAIR      86  73  65 S7        30.07F
NEWPORT NEWS   MOSUNNY   86  73  65 S17       30.08F
LANGLEY AFB    MOSUNNY   80  72  78 S13       30.08R
FORT EUSTIS    MOSUNNY   86  83  90 S6        30.06F HX 104
WILLIAMSBURG*  MOSUNNY   90  75  62 S8        30.09R HX 100
HR EXEC AP*    FAIR      79  73  83 SW3       30.11F
FRANKLIN*      PTSUNNY   83  73  72 S9        30.09S
WAKEFIELD      MOSUNNY   87  73  62 VRB3      30.08F
$$

VAZ020-022-025-037-045-062000-
WEST CENTRAL AND SOUTHWEST VIRGINIA

CITY           SKY/WX    TMP DP  RH WIND       PRES   REMARKS
STAUNTON*      PTSUNNY   81  69  66 W9        30.10F
WAYNESBORO*    CLOUDY    77  68  74 E7        30.10S
HOT SPRINGS VA CLOUDY    69  69  99 W9        30.19S
LYNCHBURG      PTSUNNY   73  71  93 VRB5      30.10S
DANVILLE       MOSUNNY   84  69  60 SW12      30.08F
SOUTH BOSTON*  FAIR      78  73  83 MISG      30.07F
MARTINSVILLE   MOSUNNY   84  67  57 SW5       30.11F
ROANOKE        PTSUNNY   78  69  73 VRB3      30.11F
BLACKSBURG     PTSUNNY   78  68  72 W6        30.17S
DUBLIN*        MOSUNNY   80  65  60 W12       30.16S
MARION*        CLOUDY    73  61  65 W13G22    30.21S
HILLSVILLE*    PTSUNNY   77  60  56 W8        30.17F
RICHLANDS*     CLOUDY    70  66  87 S3        30.21S
WISE*          CLOUDY    75  59  57 W9        30.22S
ABINGDON*      CLOUDY    77  64  65 W9        30.18S
$$

MDZ021>025-VAZ099-100-062000-
SOUTHERN MARYLAND AND THE DELMARVA PENINSULA

CITY           SKY/WX    TMP DP  RH WIND       PRES   REMARKS
PATUXENT RIVER PTSUNNY   82  74  76 SE10      30.07F
BAY BRIDGE APT   N/A     84  70  61 S10       30.07F
LEONARDTOWN    PTSUNNY   84  70  61 S6        30.09F
DOVER          MOSUNNY   82  76  81 E13       30.08F
GEORGETOWN     MOSUNNY   87  71  58 S8        30.09F
EASTON         PTSUNNY   86  72  62 S10G18    30.12F
CAMBRIDGE      MOSUNNY   86  70  58 S7        30.08F
SALISBURY      PTSUNNY   87  73  62 SE3       30.08F
OCEAN CITY     MOSUNNY   81  73  76 SE6       30.10F
WALLOPS ISLAND MOSUNNY   79  77  94 S9        30.11S
ACCOMACK*      LGT RAIN  81  79  94 S6        30.09S
$$

NCZ012>017-030>032-062000-
NORTH CENTRAL AND EASTERN NORTH CAROLINA

CITY           SKY/WX    TMP DP  RH WIND       PRES   REMARKS
ROANOKE RAPIDS FAIR      84  72  65 S8        30.08S
RALEIGH        MOSUNNY   88  68  51 W13       30.09F
ELIZABETH CITY PTSUNNY   84  73  69 S15G23    30.10F
AHOSKIE*       MOSUNNY  N/A N/A N/A CALM      30.09S
EDENTON*       HVY RAIN  78  74  88 SW6       30.12S
CURRITUCK*     PTSUNNY   86  69  57 S8        30.11S
KILL DEVIL HLS PTSUNNY   82  73  76 SW3       30.12R
MANTEO         PTSUNNY   83  74  75 SW15      30.13S
CAPE HATTERAS  PTSUNNY   80  74  81 S10       30.14F
TARBORO*         N/A     90  70  51 S8        30.09S HX  95
GOLDSBORO      MOSUNNY   90  69  50 SW6G17    30.07F
WASHINGTON     MOSUNNY   84  75  74 SE9       30.11S
GREENVILLE     MOSUNNY   90  70  51 SW10      30.10S HX  95
NEW BERN       MOSUNNY   88  71  57 S12       30.12F
WILMINGTON     SUNNY     89  69  51 SW9       30.10F
$$

VAZ048-062000-
ELSEWHERE

CITY           SKY/WX    TMP DP  RH WIND       PRES   REMARKS
HARRISBURG PA  PTSUNNY   80  69  69 SE8       30.07F
BALTIMORE      PTSUNNY   81  74  79 SE7       30.06F
ANNAPOLIS      LGT RAIN  82  72  71 S9        30.07F
ANDREWS AFB    MOSUNNY   84  79  85 SE14      30.06F HX  97
PHILADELPHIA   PTSUNNY   85  70  60 S8        30.10F
HENDERSON NC   PTSUNNY   83  67  56 S10       30.09S
GREENSBORO     PTSUNNY   87  64  46 W12G18    30.09F
ROCKY MOUNT    SUNNY     91  70  49 SW10      30.09F HX  96
$$

VAZ100-062000-
MARINE

STATION/POSITION TIME  TEMP    WIND        PRES    WAVE   SWELL
                       AIR SEA DIR/SP/G            HT/PER HT/PER
                 (UTC) (F)     (DEG/KT/KT) (MB)    (FT/S) (FT/S)
BRANDYWINE LGT   1800   74 74  130/ 11/ 12 1019.9F
CAPE MAY NJ      1800   79 78  160/  8/ 10 1019.5F
LEWES DE         1800   81 74  130/ 10/ 12 1019.2F
15NM E FENWICK I 1850   77 76              1019.1F   2/ 6
OCEAN-CITY-INLET 1800   81 74  160/  3/  5 1019.4F
WACHAPREAGUE VA  1800   81 82  180/  7/  9 1019.5F
GOOSES REEF MD   1900   80 79  170/ 12/ 16 1019.2F
COVE POINT MD    1800   78     180/ 12/ 14 1019.7F
SOLOMONS ISLAND  1800      82                N/A
BISHOPS HEAD MD  1800   80     150/ 11/ 13 1018.9F
PINEY POINT MD   1800          150/ 12/ 13   N/A
CAMBRIDGE MD     1800   84 79  180/  7/  9 1018.8F
LEWISETTA VA     1800   84 82  200/  7/  8 1018.3F
RAPPAHANNOCK LGT 1800          180/  8/  8 1019.6F
STINGRAY PT      1900   81 81  150/ 14/ 16 1018.4F   1/ 2
YORK RVR RNG VA  1800   80     130/ 11/ 12 1018.3F
YORKTOWN VA      1800   85 80  220/  6/  8 1018.4F
JAMESTOWN VA     1900   84 83  200/  6/  8   N/A
DOMINION TERM VA 1800   84     230/  9/ 11 1018.7F
KIPTOPEKE VA     1800      84  170/ 10/ 12   N/A
CHES BAY BRIDGE  1800   81 77  340/ 10/ 12 1018.4F
CAPE HENRY VA    1800   81     140/ 15/ 19   N/A
CHESAPEAKE LGHT  1800   78     170/ 18/ 19 1019.5F
WILLOUBY STN VA  1800   83     300/  3/  5 1019.7F
CAPE HENRY BUOY  1828      79                N/A     2/ 9
1ST LANDING BUOY 1900      78              1019.3R   1/ 3
CAPE CHARLES BUO 1826      78                N/A     2/ 9   2/ 9
OFFSHORE WE BUOY 1811      78                N/A     3/13   2/13
64NM E OF VA BCH 1850   78 77  190/ 10/ 12 1019.6F   3/ 8   2/ 8
DUCK PIER NC     1800   81 78  180/ 15/ 17   N/A
44100 DUCK FRF   1824      79                N/A     2/13   2/13
44056 DUCK FRF   1811      78                N/A     2/13   2/13
OREGON INLET NC  1800   80 83  190/ 13/ 15 1020.6F
HATTERAS NC      1800   83 80  160/  8/ 13 1020.7F
DIAMOND SHLS NC  1850   81 83  190/ 16/ 17 1020.5F   3/ 8   2/ 8
CAPE LOOKOUT NC  1900   81     180/ 10/ 12 1020.0F
$$



USA.gov is the U.S. government's official web portal to all federal, state and local government web resources and services.